User: anonymous   Login
Location: ????????
(55.0097°N, 38.5678°E)
Time: 15:32:27
(UTC+00:00)
Language:

Cosmos 2237 Rocket - Orbit

View from above orbital plane
View from above orbital plane
View from above satellite
View from above satellite

Ground track
Ground track

The orbit data is extracted from the following two-line orbital elements,

1 22566U 93016B   24165.91527191 -.00000116  00000-0 -35324-4 0  9994
2 22566  71.0079 106.1418 0011640 218.7083 141.3207 14.15139930612507
Epoch (UTC): 13 June 2024 21:57:59
Eccentricity: 0.0011640
inclination: 71.0079°
perigee height: 833 km
apogee height: 850 km
right ascension of ascending node: 106.1418°
argument of perigee: 218.7083°
revolutions per day: 14.15139930
mean anomaly at epoch: 141.3207°
orbit number at epoch: 61250

The dashed part of the orbit path shows where the satellite is in the earth's shadow,  

DLR